Regional Weather Roundup
Issued by NWS

Home | Current Version | Previous Version | Graphics & Text | Print | Product List | Glossary On
Versions: 1 2 3 4 5 6 7 8 9 10 11 12 13 14 15 16 17 18 19 20 21 22 23 24 25 26 27 28 29 30 31 32 33 34 35 36 37 38 39 40 41 42 43 44 45 46 47 48 49 50
000
ASUS43 KLMK 150110
RWRKY
KENTUCKY REGIONAL WEATHER ROUNDUP
NATIONAL WEATHER SERVICE LOUISVILLE KY
800 PM EST THU DEC 14 2017

NOTE "FAIR" INDICATES FEW OR NO CLOUDS BELOW 12,000 FEET
WITH NO SIGNIFICANT WEATHER AND/OR OBSTRUCTIONS TO VISIBILITY.

KYZ001>023-026-027-061>063-070>075-150200-
WESTERN AND SOUTH CENTRAL KENTUCKY

CITY           SKY/WX    TMP DP  RH WIND       PRES   REMARKS
PADUCAH        CLOUDY    34  20  56 N7        30.10R WCI  28
HENDERSON      CLOUDY    32  20  61 NW6       30.11R WCI  26
OWENSBORO      MOCLDY    30  22  72 NW6       30.10R WCI  24
HOPKINSVILLE   CLOUDY    33  21  61 NW5       30.08R WCI  28
BOWLING GREEN  CLOUDY    34  22  61 NW7       30.07S WCI  28
GLASGOW        CLOUDY    33  25  72 CALM      30.04F
$$

KYZ024-025-028>034-038-045-046-053-150200-
NORTH CENTRAL KENTUCKY

CITY           SKY/WX    TMP DP  RH WIND       PRES   REMARKS
LOUISVILLE/SDF CLOUDY    31  18  58 N7        30.07F WCI  24
LOUISVILLE/LOU CLOUDY    30  18  60 N3        30.08S
FORT KNOX      CLOUDY    25  19  76 CALM      30.04F
$$

KYZ035>037-039>044-047>052-055>060-089>105-150200-
NORTHEAST KENTUCKY

CITY           SKY/WX    TMP DP  RH WIND       PRES   REMARKS
LEXINGTON      CLOUDY    28  19  69 N10       30.06R WCI  19
COVINGTON      CLOUDY    25  17  72 NE7       30.07S WCI  17
FRANKFORT      CLOUDY    29  16  58 N3        30.06R
$$

KYZ054-064>069-076>088-106>120-150200-
SOUTHEAST KENTUCKY

CITY           SKY/WX    TMP DP  RH WIND       PRES   REMARKS
JACKSON        CLOUDY    29  20  69 CALM      30.01S
LONDON         CLOUDY    34  21  59 N5        30.02S WCI  30
SOMERSET       CLOUDY    32  21  64 N5        30.06R WCI  27
MIDDLESBORO    CLOUDY    32  26  77 CALM      30.02R
MONTICELLO     CLOUDY    34  25  69 N14       30.06  WCI  25
$$




USA.gov is the U.S. government's official web portal to all federal, state and local government web resources and services.